Regional Weather Roundup
Issued by NWS Goodland, KS

Home | Current Version | Previous Version | Graphics & Text | Print | Product List | Glossary On
Versions: 1 2 3 4 5 6 7 8 9 10 11 12 13 14 15 16 17 18 19 20 21 22 23 24 25 26 27 28 29 30 31 32 33 34 35 36 37 38 39 40 41 42 43 44 45 46 47 48 49 50
000
ASUS43 KGLD 022208
RWRGLD

GOODLAND FORECAST AREA HOURLY WEATHER ROUNDUP
NATIONAL WEATHER SERVICE GOODLAND KS
400 PM MDT SUN AUG 02 2015

...OFFICIAL OBSERVATIONS...

CITY           SKY/WX    TMP DP  RH WIND       PRES   REMARKS
GOODLAND KS    SUNNY     94  46  19 VRB7      29.96F
HILL CITY KS   SUNNY     97  63  32 S8        29.88F
IMPERIAL NEB   PTSUNNY   97  49  19 SE7       29.92F
MCCOOK NEB     MOSUNNY   99  50  19 E9        29.88S
AKRON CO       MOSUNNY   92  43  18 S12G18    30.03F
BURLINGTON CO  MOSUNNY   92  45  19 SE12      30.01F
LIMON CO       MOSUNNY   89  43  20 SE8G21    30.08F
$$

...UNOFFICIAL OBSERVATIONS...

CITY           SKY/WX    TMP DP  RH WIND       PRES   REMARKS
COLBY KS       SUNNY     97  57  26 SE6       29.93F
NORTON KS      SUNNY     93  54  26 SE5       29.88
SHARON SPRINGS   N/A     94  56  27 E9          N/A
KIT CARSON CO    N/A     92  49  22 MISG        N/A
YUMA CO          N/A     92  58  31 CALM        N/A
$$


USA.gov is the U.S. government's official web portal to all federal, state and local government web resources and services.